Regional Weather Roundup
Issued by NWS Sioux Falls, SD

Home | Current Version | Previous Version | Graphics & Text | Print | Product List | Glossary Off
Versions: 1 2 3 4 5 6 7 8 9 10 11 12 13 14 15 16 17 18 19 20 21 22 23 24 25 26 27 28 29 30 31 32 33 34 35 36 37 38 39 40 41 42 43 44 45 46 47 48 49 50

000
ASUS43 KFSD 111810
RWRFSD

WEATHER ROUNDUP FOR SE SOUTH DAKOTA/SW MINNESOTA/NW IOWA
NATIONAL WEATHER SERVICE SIOUX FALLS SD
1200 PM CST THU FEB 11 2016

NOTE: "FAIR" INDICATES FEW OR NO CLOUDS BELOW 12,000 FEET WITH NO
SIGNIFICANT WEATHER AND OR OBSTRUCTIONS TO VISIBILITY.


SDZ038>040-050-052>070-111900-
SOUTHEAST SOUTH DAKOTA

CITY           SKY/WX    TMP DP  RH WIND       PRES   REMARKS
BROOKINGS      LGT SNOW  15   9  76 S13       30.16F WCI   1
CHAMBERLAIN    CLOUDY    26  22  87 SE9       30.11F WCI  16
6HR MIN TEMP:  21; 6HR MAX TEMP:  26;

HURON          LGT SNOW  21  16  81 S9        30.17S WCI  11
6HR MIN TEMP:  16; 6HR MAX TEMP:  21; 6HR PCP: TRACE;

MADISON        CLOUDY    14  12  92 S14       30.16F WCI  -1
MITCHELL       LGT SNOW  21  17  84 S13       30.18S VSB 1   WCI   9
6HR MIN TEMP:  18; 6HR MAX TEMP:  22; 6HR PCP: TRACE;

SIOUX FALLS    CLOUDY    16   9  74 S15       30.20F WCI   1
6HR MIN TEMP:  13; 6HR MAX TEMP:  16; 6HR PCP: TRACE;

WINNER         CLOUDY    33  25  72 SE13      30.08S WCI  24
YANKTON        CLOUDY    19  12  73 S12       30.20F WCI   7
$$

MNZ071-072-080-081-089-090-097-098-111900-
SOUTHWEST MINNESOTA

CITY           SKY/WX    TMP DP  RH WIND       PRES   REMARKS
FAIRMONT       CLOUDY    10   1  67 S13       30.28F WCI  -5
JACKSON        CLOUDY    14   3  62 S13       30.25F WCI   0
LUVERNE        CLOUDY    18   9  68 S10       30.22F WCI   6
MARSHALL       FLURRIES  17   8  67 S10       30.24F WCI   5
6HR MIN TEMP:  -3; 6HR MAX TEMP:  17; 6HR PCP: TRACE;

MONTEVIDEO     CLOUDY    14   5  67 SW7       30.27S WCI   4
PIPESTONE      FLURRIES  16   3  57 S14       30.19S WCI   1
REDWOOD FALLS  CLOUDY    13   2  61 S12       30.27F WCI  -1
TRACY          CLOUDY    16   7  69 S10G17    30.23F WCI   3
WINDOM         CLOUDY    12   1  62 S8        30.24F WCI   1
WORTHINGTON    CLOUDY    12   1  62 S15       30.23F WCI  -4
$$

IAZ001>003-012>014-020>022-031-032-NEZ013-014-SDZ071-111900-
NORTHWEST IOWA

CITY           SKY/WX    TMP DP  RH WIND       PRES   REMARKS
CHEROKEE       CLOUDY    15   8  72 S10       30.28F WCI   3
DENISON        CLOUDY    16   5  62 SE6       30.27F WCI   7
ESTHERVILLE    CLOUDY    10   3  73 S13       30.27F WCI  -5
LE MARS        CLOUDY    18  10  73 S13       30.25F WCI   4
ORANGE CITY    CLOUDY    16   9  73 S8        30.23F WCI   5
SHELDON        CLOUDY    14   9  79 S14       30.23F WCI  -1
SIOUX CITY     CLOUDY    19  10  68 SE13      30.26F WCI   6
6HR MIN TEMP:  17; 6HR MAX TEMP:  19;

SPENCER        CLOUDY    14   4  64 S12       30.25F WCI   0
6HR MIN TEMP:   9; 6HR MAX TEMP:  14;

STORM LAKE     CLOUDY    12   7  79 S10       30.26F WCI  -1
$$

ABBREVIATIONS USED IN REMARKS
   TC - TEMPERATURE IN CELSIUS
  WCI - WIND CHILL INDEX
   HX - HEAT INDEX
  VSB - VISIBILITY




USA.gov is the U.S. government's official web portal to all federal, state and local government web resources and services.